Simultaneous Nadir Overpasses (SNOs) Predictions

Prediction of SNOs between METOP-B and NOAA-19 Satellite Orbit:

Table of predicted SNOs for the next 14.0 days since TLE Epoch: 8/1/2015
Index Date (METOP-B) Time (METOP-B) Lat,Lon (METOP-B) SZA (METOP-B ) Date (NOAA-19) Time (NOAA-19) Lat,Lon (NOAA-19) SZA (NOAA-19 ) Distance(km) Time Diff (sec)
1 08/03/2015 04:48:13 -75.08, -74.26 122.55 08/03/2015 04:47:01 -75.07, -74.20 122.56 2.22 72
2 08/03/2015 05:38:53 75.07, 93.02 57.44 08/03/2015 05:38:00 75.09, 93.00 57.47 2.82 53
3 08/03/2015 06:29:35 -75.06, -99.66 122.55 08/03/2015 06:29:03 -75.04, -99.63 122.57 2.30 32
4 08/03/2015 07:20:15 75.05, 67.62 57.44 08/03/2015 07:20:02 75.06, 67.57 57.46 2.66 13
5 08/03/2015 08:10:57 -75.04,-125.06 122.55 08/03/2015 08:11:05 -75.02,-125.06 122.58 2.81 8
6 08/03/2015 09:01:37 75.02, 42.22 57.44 08/03/2015 09:02:04 75.04, 42.14 57.46 2.90 27
7 08/03/2015 09:52:19 -75.02,-150.46 122.56 08/03/2015 09:53:07 -74.99,-150.49 122.59 3.59 48
8 08/03/2015 10:42:59 75.00, 16.82 57.44 08/03/2015 10:44:06 75.01, 16.71 57.45 3.46 67
9 08/03/2015 11:33:52 -74.47,-177.30 123.05 08/03/2015 11:34:59 -74.49,-174.57 123.09 81.50 67
10 08/13/2015 16:30:34 -75.39, 111.02 119.30 08/13/2015 16:29:23 -75.38, 109.44 119.27 44.30 71
11 08/13/2015 17:21:19 75.12, -82.45 60.46 08/13/2015 17:20:14 75.12, -82.47 60.47 0.66 65
12 08/13/2015 18:12:02 -75.08, 84.77 119.57 08/13/2015 18:11:19 -75.08, 84.87 119.57 2.80 43
13 08/13/2015 19:02:41 75.10,-107.85 60.46 08/13/2015 19:02:16 75.09,-107.90 60.46 1.52 25
14 08/13/2015 19:53:24 -75.06, 59.37 119.57 08/13/2015 19:53:21 -75.06, 59.44 119.57 2.03 3
15 08/13/2015 20:44:03 75.08,-133.25 60.46 08/13/2015 20:44:18 75.07,-133.33 60.45 2.48 15
16 08/13/2015 21:34:46 -75.04, 33.97 119.57 08/13/2015 21:35:23 -75.03, 34.01 119.58 1.54 37
17 08/13/2015 22:25:25 75.05,-158.65 60.46 08/13/2015 22:26:20 75.04,-158.76 60.45 3.47 55
18 08/13/2015 23:16:10 -74.92, 8.30 119.66 08/13/2015 23:17:24 -74.96, 8.72 119.63 12.64 74




NCC Satellite Simultaneous Nadir Overpasses (SN
